Showing default

FLOCK 4Q 14, 58311

Orbit data source: Space-Track

FLOCK 4Q 14, 58311 is a payload satellite owned by Planet (US) in SSO that was launched on Sat, 11 Nov 2023 UTC via an FALCON 9 launch vehicle from the Air Force Western Test Range (AFWTR). Payload-class satellites include a variety of spacecraft equipped with specific instruments for various scientific and technological missions. These include communications satellites like Starlink; space stations such as the ISS; scientific satellites like the Hubble; Earth observation satellites from companies like Planet Labs, Umbra, and HawkEye 360; GPS; miniature CubeSats for education and research; and military/defense satellites.

Loading next visibility...
Identifier
58311, 2023-174BH
Orbit
SSO
Country
Flag of USUS
Related business
Manufacturer
Planet
Mission
Non-operational Commercial Imaging
Bus & Motor
CUBESAT 3U, Unknown motor
Mass
5.7 kg wet, 5.7 kg dry
Launch date (UTC)
2023-11-11 (2 years ago)
Launch vehicle
FALCON 9
Launch site
Air Force Western Test Range (AFWTR)
Object type
Payload
Rocket body
Debris
Shape & HBR
Box + 2 Pan, 1.0 m
Radar Cross Section
0.072 m², Medium (>0.1 m² and < 1m²)

Expand to show TLE details & history
Last TLE update: 9 hours ago

TLE from 9 hours ago
0 FLOCK 4Q 14
1 58311U 23174BH  25303.20538650  .00284113  00000-0  31932-2 0  9996
2 58311  97.3984  26.0563 0008489 247.2741 112.7620 15.61641511110336
Epoch: 2025-10-30T04:55Z
TLE epoch observation values (Epoch: 2025-10-30T04:55:45.393Z)
Latitude
-0.00001°
Longitude
-86.65035°
Altitude
388.287 km
Speed
7.676 km/s
True Right ascension
01h 44m 13s
True Declination
0° 00' 00"
Sunlit
Object was in full shadow at epoch
Visualization orbit readout
Latitude
Unknown
Longitude
Unknown
Altitude
Unknown
Speed
Unknown
Apparent Right ascension
Unknown
Apparent Declination
Unknown
Sunlit
N/A
Visualization observer readout
Local Sidereal Time
09:04:17
Azimuth
Unknown
Elevation
Unknown
Doppler factor
Unknown
Orbital elements
Apogee altitude
385.562 km
Perigee altitude
374.088 km
Semi-major axis
6,757.962 km
Eccentricity
0.00085
Inclination
97.3984°
RAAN
26.0563°
Arg. of periapsis
247.2741°
True anomaly
112.85166°
Mean anomaly
112.762°
Eccentric anomaly
112.80684°
Mean motion
3.90679 °/min
Orbital period
92.15 mins
BSTAR
0.0031932
Loading maneuver chart data...
Computing Atmospheric mass density...
Loading historical data...
Loading historical data...
Loading historical data...
Loading historical data...
Loading historical data...
Loading historical data...
Loading historical data...

Documentation

Showing up to 5 results
|